Regional Weather Roundup
Issued by NWS San Angelo, TX

Home | Current Version | Previous Version | Text Only | Print | Product List | Glossary On
Versions: 1 2 3 4 5 6 7 8 9 10 11 12 13 14 15 16 17 18 19 20 21 22 23 24 25 26 27 28 29 30 31 32 33 34 35 36 37 38 39 40 41 42 43 44 45 46 47 48 49 50
069
ASUS44 KSJT 242210
RWRSJT
WEST CENTRAL TEXAS REGIONAL WEATHER ROUNDUP
NATIONAL WEATHER SERVICE SAN ANGELO TX
400 PM CST FRI FEB 24 2017

NOTE: "FAIR" INDICATES FEW OR NO CLOUDS BELOW 12,000 FEET WITH NO
SIGNIFICANT WEATHER AND/OR OBSTRUCTIONS TO VISIBILITY.

TXZ049-054-064>066-071>073-076>078-098-099-113-114-127-128-139-140-
154-155-168>170-242300
...LOCATIONS ACROSS WEST CENTRAL TEXAS...

CITY           SKY/WX    TMP DP  RH WIND       PRES   REMARKS
SAN ANGELO     SUNNY     68  22  17 W16       29.90S
ABILENE        SUNNY     57  28  33 NW14      29.93R
DYESS AFB      SUNNY     57  29  34 N12       29.93R
JUNCTION       SUNNY     72  26  18 NW13G22   29.88S
SWEETWATER     SUNNY     61  25  25 W12G18    29.95S
BROWNWOOD      SUNNY     63  30  29 NW13      29.90S
COLEMAN        CLEAR     63  28  26 NW9G16    29.91R
SONORA         SUNNY     72  16  12 NW6G17    29.93R
OZONA          FAIR      70  14  11 MISG      29.91S
BRADY          NOT AVBL
$$

TEXAS PANHANDLE/OKLAHOMA PANHANDLE

CITY           SKY/WX    TMP DP  RH WIND       PRES   REMARKS
AMARILLO       SUNNY     47  15  27 N13       29.94S
BORGER         SUNNY     46  14  27 N9        29.97R
CANADIAN       SUNNY     47  16  29 N15G25    29.97R
DALHART        PTSUNNY   44  14  29 N16       29.95R WCI  37
DUMAS          PTCLDY    41  12  30 NE7G18    29.95S WCI  36
GUYMON         NOT AVBL
HEREFORD       CLEAR     50  19  29 N12G21    29.91F
PAMPA          CLEAR     46  15  28 N16G25    29.96R WCI  39
PERRYTON       SUNNY     45  16  31 N17G26    29.95S WCI  38
$$

SOUTHERN PANHANDLE/SOUTH PLAINS/ROLLING PLAINS

CITY           SKY/WX    TMP DP  RH WIND       PRES   REMARKS
LUBBOCK        MOSUNNY   55  21  26 CALM      29.89F
SNYDER         SUNNY     59  24  26 W10G17    29.93S
CHILDRESS      SUNNY     54  18  24 N14       29.96R
SEMINOLE       CLEAR     63  11  13 NW12      29.90F
$$

PERMIAN BASIN

CITY           SKY/WX    TMP DP  RH WIND       PRES   REMARKS
MIDLAND        SUNNY     67   9  10 W10G17    29.89F
ODESSA         SUNNY     67   9  10 W14G20    29.89F
WINK           SUNNY     71  -6   4 W24G39    29.86F
$$

FAR WEST/SOUTHWEST MOUNTAINS/TRANS PECOS

CITY           SKY/WX    TMP DP  RH WIND       PRES   REMARKS
ALPINE         CLEAR     68   3   8 W20G26    30.01R
DRYDEN           N/A     79  11   7 NW13G22   29.83F
EL PASO        SUNNY     62   4  10 W21G33    29.96S
FORT STOCKTON  SUNNY     73   1   6 NW22G30   29.88F
GUADALUPE PASS SUNNY     58   2  10 W38G48      N/A
MARFA          SUNNY     65   2   8 W22G33    30.00S
PECOS          CLEAR     73   0   6 W24G32    29.87F
$$

DALLAS/FORT WORTH METROPLEX

CITY           SKY/WX    TMP DP  RH WIND       PRES   REMARKS
DFW AIRPORT    SUNNY     63  31  30 NW14      29.86S
FTW MEACHAM    SUNNY     62  30  29 NW14G21   29.88R
DAL-EXECUTIVE  SUNNY     62  35  36 NW13      29.86R
GRAND PRAIRIE  SUNNY     63  28  27 NW8G16    29.89R
ADDISON        SUNNY     61  30  31 NW16      29.88R
MESQUITE       CLEAR     61  30  31 MISG      29.87R
LANCASTER      CLEAR     60  37  42 NW13      29.88R
$$

NORTH CENTRAL TEXAS

CITY           SKY/WX    TMP DP  RH WIND       PRES   REMARKS
SHRMAN/DENISON CLEAR     59  29  32 NW14      29.89R
GAINESVILLE    SUNNY     58  27  30 NW15      29.90S
BRIDGEPORT     CLEAR     58  30  35 NW12G17   29.92S
DENTON         SUNNY     59  31  34 NW15G22   29.88R
WAXAHACHIE     CLEAR     62  36  37 NW14      29.88S
GRANBURY       CLEAR     62  32  32 NW12G20   29.90S
$$

WESTERN NORTH TEXAS

CITY           SKY/WX    TMP DP  RH WIND       PRES   REMARKS
WICHITA FALLS  SUNNY     55  27  34 NW15      29.93R
VERNON         CLEAR     56  18  22 N20       29.95R
BRECKENRIDGE   CLEAR     59  29  31 N6        29.93R
COMANCHE       SUNNY     61  34  35 NW10G16   29.90S
$$

CENTRAL AND SOUTH CENTRAL TEXAS

CITY           SKY/WX    TMP DP  RH WIND       PRES   REMARKS
AUSTIN/BERGSTM SUNNY     77  34  21 N15       29.82R
WACO           SUNNY     65  41  41 N12       29.87R
HILLSBORO      CLEAR     64  39  39 NW13      29.87S
TEMPLE         SUNNY     67  43  41 NW10      29.87R
KILLEEN-GRAY   SUNNY     68  37  31 N9        29.86R
FORT HOOD      SUNNY     68  36  30 N13       29.84S
GEORGETOWN     SUNNY     72  36  26 NW12G21   29.85R
LAGO VISTA     FAIR      73  30  20 NW9G21    29.86S
SAN MARCOS     SUNNY     79  34  19 NW21      29.84R
NEW BRAUNFELS  SUNNY     81  25  12 N20       29.81R
RANDOLPH AFB   SUNNY     80  26  13 N12       29.81S
SAN ANTONIO    SUNNY     80  29  15 NW21G26   29.82R
STINSON        SUNNY     83  21  10 N12G18    29.79R
PLEASANTON     NOT AVBL
LA GRANGE      SUNNY     78  39  25 N12G20    29.80R
GIDDINGS       CLEAR    N/A N/A N/A N12G18    29.84R
$$

EAST TEXAS

CITY           SKY/WX    TMP DP  RH WIND       PRES   REMARKS
PARIS          SUNNY     63  34  34 NW14      29.84R
CLARKSVILLE    NOT AVBL
TYLER          SUNNY     66  43  43 NW15      29.82R
LONGVIEW       SUNNY     70  46  42 NW15      29.78R
PALESTINE      CLEAR     65  45  46 NW15G21   29.84R
NACOGDOCHES    SUNNY     72  48  43 NW8G21    29.76R
$$

TEXAS HILL COUNTRY AND EDWARDS PLATEAU

CITY           SKY/WX    TMP DP  RH WIND       PRES   REMARKS
LLANO          CLEAR     70  32  24 N10       29.91S
HORSESHOE BAY    N/A     72  29  20 NW13G21   29.87R
KERRVILLE      SUNNY     73  24  16 N12G17    29.87R
FREDERICKSBRG  SUNNY     70  22  16 NW18G24   29.88R
ROCKSPRINGS    CLEAR     73  23  15 N9G20     29.90S
HONDO          SUNNY     83  23  11 N21G26    29.81S
UVALDE         CLEAR     81  28  14 N13G21    29.81S
DEL RIO        SUNNY     84  20   9 N14G21    29.79F
$$

SOUTHEAST TEXAS

CITY           SKY/WX    TMP DP  RH WIND       PRES   REMARKS
COLLEGE STN    SUNNY     71  44  37 NW14      29.83R
CALDWELL       NOT AVBL
CROCKETT       CLEAR     68  45  42 NW12G20   29.84R
BRENHAM        SUNNY     76  42  29 NW15      29.82S
HUNTSVILLE     SUNNY     74  39  28 NW16G22   29.80R
CONROE         SUNNY     80  35  19 NW15G22   29.77R
HOUSTON BUSH   MOSUNNY   83  30  14 NW14      29.75S
HOUSTON HOBBY  MOSUNNY   83  55  38 N13       29.74F
PERLAND        SUNNY     85  53  33 N8        29.75F
WHARTON        CLEAR     80  36  20 NW20G25   29.78R
$$

THE UPPER TEXAS COAST

CITY           SKY/WX    TMP DP  RH WIND       PRES   REMARKS
ORANGE         MOCLDY    75  65  71 S12       29.77S
PORT ARTHUR    MOSUNNY   79  65  62 S10       29.74F
GALVESTON      SUNNY     74  67  78 SE12      29.76F
ANGLETON       MOSUNNY   84  59  42 N9G18     29.74F
BAY CITY       CLEAR     82  60  47 N13       29.75S
$$

TEXAS COASTAL BEND, RIO GRANDE PLAINS DEEP SOUTH TEXAS

CITY           SKY/WX    TMP DP  RH WIND       PRES   REMARKS
VICTORIA       SUNNY     84  40  21 N17G24    29.77R
BEEVILLE       FAIR      86  35  16 NE16      29.77S
ROCKPORT       SUNNY     88  47  24 N15G22    29.74S
PORT ARANSAS   CLEAR     74  67  77 E8        29.75R
PORT LAVACA    CLEAR     84  55  36 N16G25    29.76R
CORPUS CHRISTI SUNNY     87  42  20 N20       29.74R
KINGSVILLE NAS SUNNY     90  33  13 N21G28    29.74S
COTULLA        SUNNY     90  17   7 N14       29.77S
LAREDO         SUNNY     89  30  12 N10G18    29.77S
BROWNSVILLE    NOT AVBL
PORT ISABEL    SUNNY     82  66  58 NE16      29.73R
HEBBRONVILLE   CLEAR     87  26  11 N12G22    29.78S
MCALLEN        SUNNY     94  38  14 N17       29.72F
WESLACO        MOSUNNY   90  40  17 N16       29.71S
FALFURRIAS     CLEAR     90  29  11 N13G21    29.73F
EDINBURG       CLEAR     94  28   9 N16G24    29.72F
$$




USA.gov is the U.S. government's official web portal to all federal, state and local government web resources and services.